User: anonymous   Login
Location: Los Gatos B&B
(42.6926°N, 77.0646°W)
Time: 00:39:51
(UTC-04:00)
Language:

SL-16 R/B - Orbit

View from above orbital plane
View from above orbital plane
View from above satellite
View from above satellite

Ground track
Ground track

The orbit data is extracted from the following two-line orbital elements,

1 28353U 04021B   16239.54552214 -.00000207  00000-0 -83674-4 0  9990
2 28353  71.0022 336.3700 0007302 281.0160  79.0140 14.14175718630501
Epoch (UTC): 26 August 2016 13:05:33
Eccentricity: 0.0007302
inclination: 71.0022°
perigee height: 840 km
apogee height: 850 km
right ascension of ascending node: 336.3700°
argument of perigee: 281.0160°
revolutions per day: 14.14175718
mean anomaly at epoch: 79.0140°
orbit number at epoch: 63050

The dashed part of the orbit path shows where the satellite is in the earth's shadow,  

DLR